Location: Shepherdstown, WV
(39.4326°N, 77.8042°W)
Time: 05:30:02
(UTC-04:00)

SR - Pass Details

Date: 07 August 2021
Orbit: 581 x 874 km, 66.7° (Epoch: 24 September)

Event Time Altitude Azimuth Distance (km) Brightness Sun altitude
Rises 13:29:40 0° 342° (NNW) 3,081 ? 66.6°
Reaches altitude 10° 13:32:38 10° 359° (N) 2,103 ? 66.5°
Maximum altitude 13:36:10 20° 47° (NE) 1,463 ? 66.4°
Drops below altitude 10° 13:39:30 10° 96° (E) 1,979 ? 66.3°
Sets 13:42:11 0° 114° (ESE) 2,844 ? 66.1°
